timestamp,wind_dir_avg,wind_spd_avg,wind_spd_max_dir,wind_spd_gust,battery_voltage,lat,long
2021-05-30 00:04:01+00:00,177.0,4.99,177.0,5.38,13.21,47.59359,-54.27349
2021-05-30 00:14:01+00:00,195.0,5.79,196.0,6.5,12.73,47.59359,-54.27349
2021-05-30 00:24:01+00:00,195.0,6.27,194.0,7.1,12.73,47.59359,-54.27349
2021-05-30 00:34:01+00:00,195.0,6.51,198.0,7.3,12.73,47.59359,-54.27349
2021-05-30 00:44:01+00:00,196.0,6.88,198.0,7.5,12.73,47.59359,-54.27349
2021-05-30 00:54:01+00:00,177.0,4.06,179.0,4.51,12.73,47.59359,-54.27349
2021-05-30 01:04:01+00:00,195.0,4.27,194.0,4.65,12.73,47.59359,-54.27349
2021-05-30 01:14:01+00:00,203.0,5.27,204.0,6.0,12.57,47.59359,-54.27349
2021-05-30 01:24:01+00:00,184.0,3.94,192.0,4.7,12.57,47.59359,-54.27349
2021-05-30 01:34:01+00:00,199.0,5.58,204.0,5.99,12.57,47.59359,-54.27349
2021-05-30 01:44:01+00:00,197.0,5.03,196.0,5.69,12.57,47.59359,-54.27349
2021-05-30 01:54:01+00:00,208.0,5.54,214.0,6.24,12.57,47.59359,-54.27349
2021-05-30 02:04:01+00:00,217.0,6.5,216.0,7.39,12.57,47.59359,-54.27349
2021-05-30 02:14:00+00:00,221.0,5.87,221.0,6.57,12.57,47.59359,-54.27349
2021-05-30 02:24:00+00:00,218.0,6.25,220.0,6.9,12.57,47.59359,-54.27349
2021-05-30 02:34:00+00:00,219.0,7.05,219.0,7.65,12.57,47.59359,-54.27349
2021-05-30 02:44:00+00:00,223.0,6.59,221.0,7.54,12.57,47.59359,-54.27349
2021-05-30 02:54:00+00:00,228.0,6.45,226.0,7.02,12.57,47.59359,-54.27349
2021-05-30 03:04:00+00:00,216.0,5.54,218.0,6.68,12.57,47.59359,-54.27349
2021-05-30 03:14:01+00:00,220.0,6.82,224.0,7.74,12.57,47.59359,-54.27349
2021-05-30 03:24:01+00:00,214.0,7.81,213.0,8.59,12.57,47.59359,-54.27349
2021-05-30 03:34:01+00:00,212.0,6.54,217.0,7.31,12.57,47.59359,-54.27349
2021-05-30 03:44:01+00:00,209.0,6.56,210.0,7.46,12.57,47.59359,-54.27349
2021-05-30 03:54:01+00:00,206.0,6.32,208.0,7.08,12.57,47.59359,-54.27349
2021-05-30 04:04:01+00:00,211.0,6.84,212.0,7.53,12.57,47.59359,-54.27349
2021-05-30 04:14:01+00:00,214.0,6.12,216.0,6.97,12.49,47.59359,-54.27349
2021-05-30 04:24:01+00:00,214.0,6.03,213.0,6.76,12.49,47.59359,-54.27349
2021-05-30 04:34:01+00:00,213.0,5.52,215.0,6.22,12.49,47.59359,-54.27349
2021-05-30 04:44:01+00:00,216.0,4.9,216.0,6.07,12.49,47.59359,-54.27349
2021-05-30 04:54:01+00:00,211.0,4.16,210.0,4.7,12.49,47.59359,-54.27349
2021-05-30 05:04:01+00:00,206.0,3.92,210.0,4.28,12.49,47.59359,-54.27349
2021-05-30 05:14:00+00:00,207.0,5.53,210.0,5.84,12.49,47.59359,-54.27349
2021-05-30 05:24:00+00:00,216.0,4.27,217.0,4.73,12.49,47.59359,-54.27349
2021-05-30 05:34:00+00:00,224.0,4.27,231.0,5.27,12.49,47.59359,-54.27349
2021-05-30 05:44:00+00:00,212.0,4.76,214.0,5.1,12.49,47.59359,-54.27349
2021-05-30 05:54:00+00:00,207.0,4.43,203.0,5.06,12.49,47.59359,-54.27349
2021-05-30 06:04:00+00:00,211.0,5.25,209.0,5.94,12.49,47.59359,-54.27349
2021-05-30 06:14:00+00:00,209.0,6.39,210.0,6.88,12.49,47.59359,-54.27349
2021-05-30 06:24:00+00:00,212.0,5.26,214.0,5.84,12.49,47.59359,-54.27349
2021-05-30 06:34:00+00:00,221.0,7.02,219.0,8.21,12.49,47.59359,-54.27349
2021-05-30 06:44:00+00:00,215.0,7.06,218.0,7.9,12.49,47.59359,-54.27349
2021-05-30 06:54:00+00:00,217.0,6.41,219.0,7.04,12.49,47.59359,-54.27349
2021-05-30 07:04:00+00:00,221.0,6.03,224.0,7.16,12.49,47.59359,-54.27349
2021-05-30 07:14:01+00:00,218.0,5.22,222.0,5.99,12.41,47.59359,-54.27349
2021-05-30 07:24:01+00:00,236.0,5.08,238.0,5.65,12.41,47.59359,-54.27349
2021-05-30 07:34:01+00:00,232.0,5.5,230.0,6.2,12.41,47.59359,-54.27349
2021-05-30 07:44:01+00:00,228.0,4.58,230.0,6.4,12.41,47.59359,-54.27349
2021-05-30 07:54:01+00:00,235.0,5.2,244.0,6.8,12.41,47.59359,-54.27349
2021-05-30 08:04:01+00:00,231.0,5.01,232.0,5.77,12.41,47.59359,-54.27349
2021-05-30 08:14:01+00:00,230.0,5.37,236.0,6.15,12.41,47.59359,-54.27349
2021-05-30 08:24:01+00:00,230.0,5.36,230.0,6.22,12.41,47.59359,-54.27349
2021-05-30 08:34:01+00:00,222.0,5.92,229.0,6.68,12.41,47.59359,-54.27349
2021-05-30 08:44:01+00:00,222.0,6.22,219.0,7.01,12.41,47.59359,-54.27349
2021-05-30 08:54:01+00:00,225.0,5.11,221.0,5.91,12.41,47.59359,-54.27349
2021-05-30 09:04:01+00:00,213.0,5.17,214.0,5.97,12.41,47.59359,-54.27349
2021-05-30 09:14:01+00:00,213.0,5.77,219.0,6.66,12.73,47.59359,-54.27349
2021-05-30 09:24:01+00:00,213.0,4.92,212.0,5.9,12.73,47.59359,-54.27349
2021-05-30 09:34:01+00:00,216.0,5.78,213.0,6.71,12.73,47.59359,-54.27349
2021-05-30 09:44:01+00:00,212.0,5.77,216.0,7.03,12.73,47.59359,-54.27349
2021-05-30 09:54:01+00:00,212.0,5.88,216.0,6.53,12.73,47.59359,-54.27349
2021-05-30 10:04:01+00:00,211.0,4.64,208.0,5.47,12.73,47.59359,-54.27349
2021-05-30 10:14:01+00:00,212.0,5.7,212.0,6.09,13.76,47.59359,-54.27349
2021-05-30 10:24:01+00:00,205.0,7.06,205.0,7.63,13.76,47.59359,-54.27349
2021-05-30 10:34:01+00:00,207.0,6.84,207.0,7.36,13.76,47.59359,-54.27349
2021-05-30 10:44:01+00:00,216.0,4.96,216.0,5.74,13.76,47.59359,-54.27349
2021-05-30 10:54:01+00:00,216.0,5.73,216.0,6.6,13.76,47.59359,-54.27349
2021-05-30 11:04:01+00:00,208.0,5.55,210.0,6.16,13.76,47.59359,-54.27349
2021-05-30 11:14:01+00:00,202.0,6.5,206.0,6.99,13.68,47.59359,-54.27349
2021-05-30 11:24:01+00:00,201.0,6.95,204.0,7.59,13.68,47.59359,-54.27349
2021-05-30 11:34:01+00:00,206.0,7.41,207.0,7.78,13.68,47.59359,-54.27349
2021-05-30 11:44:01+00:00,201.0,6.68,202.0,7.54,13.68,47.59359,-54.27349
2021-05-30 11:54:01+00:00,201.0,7.35,202.0,8.0,13.68,47.59359,-54.27349
2021-05-30 12:04:01+00:00,202.0,7.83,199.0,8.47,13.68,47.59359,-54.27349
2021-05-30 12:14:01+00:00,200.0,8.18,198.0,8.74,13.84,47.59359,-54.27349
2021-05-30 12:24:01+00:00,204.0,8.52,211.0,9.35,13.84,47.59359,-54.27349
2021-05-30 12:34:01+00:00,204.0,8.73,203.0,9.63,13.84,47.59359,-54.27349
2021-05-30 12:44:01+00:00,203.0,8.35,206.0,9.09,13.84,47.59359,-54.27349
2021-05-30 12:54:01+00:00,205.0,9.53,208.0,10.47,13.84,47.59359,-54.27349
2021-05-30 13:04:01+00:00,207.0,8.59,209.0,9.66,13.84,47.59359,-54.27349
2021-05-30 13:14:01+00:00,211.0,9.31,212.0,10.24,14.16,47.59359,-54.27349
2021-05-30 13:24:01+00:00,209.0,9.78,212.0,11.29,14.16,47.59359,-54.27349
2021-05-30 13:34:01+00:00,211.0,10.57,213.0,11.64,14.16,47.59359,-54.27349
2021-05-30 13:44:01+00:00,209.0,10.88,209.0,11.8,14.16,47.59359,-54.27349
2021-05-30 13:54:01+00:00,205.0,9.69,199.0,11.02,14.16,47.59359,-54.27349
2021-05-30 14:04:01+00:00,207.0,9.53,207.0,11.08,14.16,47.59359,-54.27349
2021-05-30 14:14:01+00:00,205.0,9.73,205.0,,,47.59359,-54.27349
2021-05-30 14:24:01+00:00,207.0,9.39,210.0,,,47.59359,-54.27349
2021-05-30 14:34:01+00:00,207.0,9.77,209.0,,,47.59359,-54.27349
2021-05-30 14:44:01+00:00,209.0,9.55,212.0,,,47.59359,-54.27349
2021-05-30 14:54:01+00:00,206.0,9.63,204.0,,,47.59359,-54.27349
2021-05-30 15:04:01+00:00,211.0,10.42,213.0,,,47.59359,-54.27349
2021-05-30 15:14:01+00:00,210.0,9.94,212.0,11.23,14.0,47.59359,-54.27349
2021-05-30 15:24:01+00:00,210.0,10.28,211.0,11.42,14.0,47.59359,-54.27349
2021-05-30 15:34:01+00:00,211.0,9.12,215.0,10.17,14.0,47.59359,-54.27349
2021-05-30 15:44:01+00:00,212.0,9.44,217.0,11.31,14.0,47.59359,-54.27349
2021-05-30 15:54:01+00:00,213.0,10.4,214.0,11.6,14.0,47.59359,-54.27349
2021-05-30 16:04:01+00:00,214.0,11.1,214.0,12.18,14.0,47.59359,-54.27349
2021-05-30 16:14:01+00:00,213.0,10.46,216.0,11.83,14.32,47.59359,-54.27349
2021-05-30 16:24:01+00:00,213.0,11.03,214.0,12.26,14.32,47.59359,-54.27349
2021-05-30 16:34:01+00:00,213.0,11.77,211.0,13.24,14.32,47.59359,-54.27349
2021-05-30 16:44:01+00:00,211.0,10.02,214.0,11.08,14.32,47.59359,-54.27349
2021-05-30 16:54:01+00:00,212.0,10.52,203.0,14.2,14.32,47.59359,-54.27349
2021-05-30 17:04:01+00:00,210.0,11.87,203.0,14.04,14.32,47.59359,-54.27349
2021-05-30 17:14:01+00:00,212.0,10.15,200.0,12.31,14.4,47.59359,-54.27349
2021-05-30 17:24:01+00:00,210.0,10.96,213.0,12.22,14.4,47.59359,-54.27349
2021-05-30 17:34:01+00:00,211.0,11.21,215.0,12.49,14.4,47.59359,-54.27349
2021-05-30 17:44:01+00:00,213.0,11.02,215.0,12.85,14.4,47.59359,-54.27349
2021-05-30 17:54:01+00:00,213.0,10.87,214.0,12.29,14.4,47.59359,-54.27349
2021-05-30 18:04:01+00:00,214.0,11.05,213.0,12.26,14.4,47.59359,-54.27349
2021-05-30 18:14:01+00:00,212.0,10.83,212.0,12.52,13.84,47.59359,-54.27349
2021-05-30 18:24:01+00:00,210.0,10.99,210.0,12.51,13.84,47.59359,-54.27349
2021-05-30 18:34:01+00:00,210.0,10.51,213.0,12.04,13.84,47.59359,-54.27349
2021-05-30 18:44:01+00:00,208.0,10.78,209.0,11.82,13.84,47.59359,-54.27349
2021-05-30 18:54:01+00:00,208.0,10.83,209.0,11.79,13.84,47.59359,-54.27349
2021-05-30 19:04:01+00:00,204.0,10.4,204.0,12.29,13.84,47.59359,-54.27349
2021-05-30 19:14:01+00:00,207.0,11.48,209.0,12.88,13.84,47.59359,-54.27349
2021-05-30 19:24:01+00:00,208.0,11.43,210.0,12.4,13.84,47.59359,-54.27349
2021-05-30 19:34:01+00:00,208.0,10.91,212.0,11.72,13.84,47.59359,-54.27349
2021-05-30 19:44:01+00:00,210.0,11.5,211.0,12.17,13.84,47.59359,-54.27349
2021-05-30 19:54:01+00:00,215.0,10.99,214.0,12.88,13.84,47.59359,-54.27349
2021-05-30 20:04:01+00:00,210.0,11.09,212.0,12.58,13.84,47.59359,-54.27349
2021-05-30 20:14:01+00:00,205.0,11.09,197.0,12.94,13.92,47.59359,-54.27349
2021-05-30 20:24:01+00:00,212.0,11.41,214.0,12.75,13.92,47.59359,-54.27349
2021-05-30 20:34:01+00:00,211.0,11.17,210.0,12.44,13.92,47.59359,-54.27349
2021-05-30 20:44:01+00:00,210.0,10.7,201.0,13.55,13.92,47.59359,-54.27349
2021-05-30 20:54:01+00:00,211.0,11.1,212.0,12.36,13.92,47.59359,-54.27349
2021-05-30 21:04:01+00:00,216.0,11.47,216.0,12.5,13.92,47.59359,-54.27349
2021-05-30 21:14:01+00:00,214.0,11.24,216.0,12.49,13.92,47.59359,-54.27349
2021-05-30 21:24:01+00:00,214.0,10.52,214.0,11.73,13.92,47.59359,-54.27349
2021-05-30 21:34:01+00:00,212.0,10.99,214.0,12.26,13.92,47.59359,-54.27349
2021-05-30 21:44:01+00:00,216.0,9.91,217.0,11.13,13.92,47.59359,-54.27349
2021-05-30 21:54:01+00:00,211.0,9.76,211.0,11.02,13.92,47.59359,-54.27349
2021-05-30 22:04:01+00:00,214.0,9.25,213.0,10.3,13.92,47.59359,-54.27349
2021-05-30 22:14:01+00:00,218.0,8.31,221.0,9.81,13.68,47.59359,-54.27349
2021-05-30 22:24:01+00:00,214.0,7.97,213.0,8.65,13.68,47.59359,-54.27349
2021-05-30 22:34:01+00:00,211.0,7.48,212.0,8.39,13.68,47.59359,-54.27349
2021-05-30 22:44:01+00:00,210.0,7.72,212.0,8.61,13.68,47.59359,-54.27349
2021-05-30 22:54:01+00:00,208.0,8.47,207.0,9.32,13.68,47.59359,-54.27349
2021-05-30 23:04:01+00:00,200.0,7.45,206.0,8.57,13.68,47.59359,-54.27349
2021-05-30 23:14:01+00:00,203.0,7.65,199.0,8.49,13.29,47.59359,-54.27349
2021-05-30 23:24:01+00:00,202.0,7.41,202.0,8.08,13.29,47.59359,-54.27349
2021-05-30 23:34:01+00:00,206.0,6.77,202.0,7.65,13.29,47.59359,-54.27349
2021-05-30 23:44:01+00:00,201.0,6.56,204.0,7.46,13.29,47.59359,-54.27349
2021-05-30 23:54:01+00:00,207.0,6.38,209.0,7.15,13.29,47.59359,-54.27349
